Regional Weather Roundup
Issued by NWS

Home | Current Version | Previous Version | Text Only | Print | Product List | Glossary Off
Versions: 1 2 3 4 5 6 7 8 9 10 11 12 13 14 15 16 17 18 19 20 21 22 23 24 25 26 27 28 29 30 31 32 33 34 35 36 37 38 39 40 41 42 43 44 45 46 47 48 49 50

188
ASUS43 KDTX 202101
RWRMI
MICHIGAN HOURLY REGIONAL WEATHER ROUNDUP
NATIONAL WEATHER SERVICE DETROIT/PONTIAC MI
400 PM EST FRI JAN 20 2017

NOTE: "FAIR" INDICATES FEW OR NO CLOUDS BELOW 12,000 FEET WITH NO
SIGNIFICANT WEATHER AND/OR OBSTRUCTION TO VISIBILITY.

MIZ047>049-052>055-059>063-066>070-074>076-081>083-202200-
SOUTHEAST LOWER MICHIGAN

CITY           SKY/WX    TMP DP  RH WIND       PRES   REMARKS
ADRIAN         CLOUDY    40  40 100 W6        29.66F FOG
ALMA           CLOUDY    34  33  98 CALM      29.69R FOG
ANN ARBOR      FOG       39  39 100 S5        29.68R VSB 1/4
BAD AXE        LGT SNOW  35  35 100 E3        29.67S
CARO             N/A     35  35  98 MISG        N/A
DETROIT CITY   FOG       38  38 100 CALM      29.67R VSB 1/4
DETROIT        FOG       40  39  97 S5        29.69R VSB 1/2
FLINT          FOG       37  36  96 S5        29.67R VSB 1   WCI  33
GROSSE ILE     FOG       37  36  98 S3        29.68R VSB<1/4
HILLSDALE      CLOUDY    39  39 100 SW5       29.64S FOG
HOWELL         FOG       37  37  97 S3        29.66R VSB 1/2

CITY           SKY/WX    TMP DP  RH WIND       PRES   REMARKS
JACKSON        CLOUDY    39  38  96 CALM      29.65S FOG
LAMBERTVILLE   CLOUDY    45  43  92 CALM      29.68R FOG
LANSING        CLOUDY    37  35  92 S3        29.67R FOG
LAPEER         FOG       36  36 100 SE6       29.66S VSB 1/2 WCI  31
MASON          FOG       37  37  99 CALM      29.67R VSB 1
MONROE         CLOUDY    41  41 100 W7        29.67R FOG
MT. CLEMENS    FOG       37  37 100 CALM      29.65R VSB 1/2
PONTIAC        FOG       36  35  96 S3        29.65R VSB 1/4
PORT HOPE        N/A     34  34 100 E7        29.66S WCI  28
PORT HURON     FOG       37  37 100 CALM      29.67S VSB 1/2
TRI CITIES     FOG       34  34 100 CALM      29.69R VSB 3/4
MIDLAND        CLOUDY    35  34  96 E3        29.68R FOG
TROY           FOG       38  37  95 CALM      29.69R VSB 1/4
SAGINAW HB     CLOUDY    36  32  87 CALM      29.68R FOG
$$
MIZ043>046-050>051-056>058-064>065-071>073-077>080-202200-
SOUTHWEST LOWER MICHIGAN

CITY           SKY/WX    TMP DP  RH WIND       PRES   REMARKS
BATTLE CREEK   CLOUDY    39  38  96 CALM      29.65F
BENTON HARBOR  CLOUDY    42  39  89 CALM      29.64R FOG
BIG RAPIDS     CLOUDY    33  32  94 SE6       29.66R FOG     WCI  28
COLDWATER      CLOUDY    41  41 100 SW5       29.65R FOG
FREMONT        DRIZZLE   35  35 100 SE3       29.66S
HOLLAND        CLOUDY    38  36  92 E6        29.64F WCI  33
GRAND RAPIDS   CLOUDY    36  34  92 E5        29.66S FOG     WCI  32
IONIA          FOG       34  34  99 CALM      29.67R VSB 1
KALAMAZOO      CLOUDY    39  37  92 CALM      29.65F FOG
LUDINGTON      LGT RAIN  38  37  95 SE3       29.66R
MARSHALL       CLOUDY    39  39  99 SW3       29.65S
MOUNT PLEASANT CLOUDY    34  33  97 CALM      29.68R FOG
MUSKEGON       CLOUDY    38  36  92 E7        29.66S FOG     WCI  33
SOUTH HAVEN    CLOUDY    40  39  97 S3        29.64S FOG
$$
MIZ016>042-202200-
NORTHERN LOWER MICHIGAN

CITY           SKY/WX    TMP DP  RH WIND       PRES   REMARKS
ALPENA         FOG       34  33  96 E7        29.69S VSB 1/4 WCI  28
BEAVER ISLAND  LGT RAIN  33  33 100 E6        29.68S WCI  27
BELLAIRE       CLOUDY    39  33  78 CALM      29.67R
CADILLAC       CLOUDY    35  32  90 E5        29.62S WCI  31
CHARLEVOIX     CLOUDY    37  34  90 CALM      29.69S
FRANKFORT      CLOUDY    40  34  81 CALM      29.65S
GAYLORD        CLOUDY    37  31  78 E3        29.65R
GRAYLING       CLOUDY    35  33  91 E6        29.66S WCI  30
HARBOR SPRINGS CLOUDY    35  32  91 E8        29.67S WCI  28
HOUGHTON LAKE  LGT RAIN  35  32  88 E9        29.64F WCI  28
MANISTEE       LGT RAIN  40  34  79 CALM      29.65R
OSCODA         FOG       36  35  96 E3        29.68S VSB 1/4
PELLSTON       CLOUDY    35  32  88 SE7       29.69R WCI  29
ROGERS CITY    CLOUDY    34  33  95 E5        29.71R FOG     WCI  30
TRAVERSE CITY  CLOUDY    37  32  82 NE5       29.64F WCI  33
$$
MIZ007>008-015-202200-
EASTERN UPPER MICHIGAN

CITY           SKY/WX    TMP DP  RH WIND       PRES   REMARKS
KINROSS        FOG       33  33 100 E9        29.69S VSB 1   WCI  25
MACKINAC ISLAN CLOUDY    33  33 100 E5        29.69R FOG     WCI  28
NEWBERRY       FOG       33  32  96 SE7       29.68R VSB 1/2 WCI  27
S. S. MARIE    CLOUDY    34  33  96 E6        29.69S FOG     WCI  29
MUNISING         N/A     35  34  96 S8        29.66S WCI  29
$$
MIZ004>006-011>014-085-202200-
CENTRAL UPPER MICHIGAN

CITY           SKY/WX    TMP DP  RH WIND       PRES   REMARKS
MANISTIQUE     FOG       33  32  97 NE6       29.68S VSB 1/2 WCI  27
ESCANABA       LGT RAIN  34  33  96 CALM      29.68F FOG
SAWYER-GWINN   CLOUDY    34  34 100 S8        29.65R WCI  27
$$
MIZ001>003-009>011-084-202200-
WESTERN UPPER MICHIGAN

CITY           SKY/WX    TMP DP  RH WIND       PRES   REMARKS
IRON MOUNTAIN  LGT SNOW  33  31  92 CALM      29.65F FOG
HOUGHTON       CLOUDY    37  30  75 CALM      29.62S
COPPER HARBOR    N/A     38  32  79 E3        29.64S
IRONWOOD       RAIN      37  35  92 E7        29.62S FOG     WCI  32
$$

ABBREVIATIONS USED IN REMARKS
   TC - TEMPERATURE IN CELSIUS
  WCI - WIND CHILL INDEX
   HX - HEAT INDEX
  VSB - VISIBILITY





USA.gov is the U.S. government's official web portal to all federal, state and local government web resources and services.